Location: *
(52.2090°N, 4.1550°W)
Time: 16:00:47
(UTC+00:00)

Cosmos 1500 Rocket - Pass Details

Date: 22 October 2019
Orbit: 603 x 631 km, 82.5° (Epoch: 17 November)

Event Time Altitude Azimuth Distance (km) Brightness Sun altitude
Rises 20:42:50 0° 346° (NNW) 2,939 7.6 -32.9°
Reaches altitude 10° 20:45:07 10° 342° (NNW) 2,025 6.7 -33.2°
Enters shadow 20:46:37 20° 336° (NNW) 1,457 5.9 -33.4°
